• en France
  • Liste des pays
  • À 7 jours
  • Température de l'eau
  • Carte satellitaire
  • Carte météo
  • Widgets météo
  • user-avatar
    Se connecter

    Météo par heure à Leticia

    Ce jour, 13 Novembre, Mardi

    Heure Température Précipitation Vent Pression Humidité
    00:00 +25°C° 0 mm 0 m/s 748 mmHg 87%
    01:00 +25°C° 0 mm 0 m/s 748 mmHg 88%
    02:00 +25°C° 0 mm 0 m/s 748 mmHg 89%
    03:00 +24°C° 0 mm 0 m/s 748 mmHg 90%
    04:00 +24°C° 0 mm 0 m/s 748 mmHg 91%
    05:00 +27°C° 0 mm 1 m/s 749 mmHg 87%
    06:00 +28°C° 0 mm 1 m/s 750 mmHg 83%
    07:00 +29°C° 0 mm 1 m/s 750 mmHg 79%
    08:00 +32°C° 0.2 mm 1 m/s 750 mmHg 70%
    09:00 +34°C° 0.2 mm 1 m/s 750 mmHg 60%
    10:00 +36°C° 0.2 mm 1 m/s 750 mmHg 51%
    11:00 +36°C° 0.1 mm 1 m/s 750 mmHg 50%
    12:00 +37°C° 0.1 mm 1 m/s 749 mmHg 48%
    13:00 +37°C° 0.1 mm 1 m/s 748 mmHg 47%
    14:00 +36°C° 0 mm 1 m/s 747 mmHg 49%
    15:00 +36°C° 0 mm 1 m/s 747 mmHg 52%
    16:00 +35°C° 0 mm 1 m/s 747 mmHg 55%
    17:00 +32°C° 0 mm 0 m/s 747 mmHg 59%
    18:00 +30°C° 0 mm 0 m/s 748 mmHg 64%
    19:00 +29°C° 0 mm 0 m/s 748 mmHg 68%
    20:00 +28°C° 0 mm 0 m/s 748 mmHg 70%
    21:00 +28°C° 0 mm 0 m/s 749 mmHg 72%
    22:00 +27°C° 0 mm 0 m/s 749 mmHg 74%
    23:00 +27°C° 0 mm 0 m/s 749 mmHg 76%

    Demain, 14 Novembre, Mercredi

    Heure Température Précipitation Vent Pression Humidité
    00:00 +26°C° 0 mm 0 m/s 748 mmHg 77%
    01:00 +26°C° 0 mm 0 m/s 748 mmHg 79%
    02:00 +26°C° 0 mm 0 m/s 748 mmHg 81%
    03:00 +25°C° 0 mm 0 m/s 748 mmHg 82%
    04:00 +25°C° 0 mm 0 m/s 748 mmHg 83%
    05:00 +26°C° 0 mm 0 m/s 748 mmHg 80%
    06:00 +27°C° 0 mm 0 m/s 749 mmHg 78%
    07:00 +28°C° 0 mm 0 m/s 749 mmHg 75%
    08:00 +31°C° 1.8 mm 1 m/s 750 mmHg 75%
    09:00 +32°C° 1.8 mm 1 m/s 750 mmHg 75%
    10:00 +33°C° 1.8 mm 1 m/s 750 mmHg 76%
    11:00 +34°C° 1 mm 1 m/s 749 mmHg 68%
    12:00 +35°C° 1 mm 1 m/s 749 mmHg 61%
    13:00 +36°C° 1 mm 1 m/s 748 mmHg 53%
    14:00 +35°C° 0.2 mm 1 m/s 747 mmHg 58%
    15:00 +34°C° 0.2 mm 1 m/s 747 mmHg 62%
    16:00 +33°C° 0.2 mm 1 m/s 747 mmHg 66%
    17:00 +31°C° 1 mm 1 m/s 747 mmHg 73%
    18:00 +30°C° 1 mm 1 m/s 747 mmHg 79%
    19:00 +28°C° 1 mm 1 m/s 748 mmHg 86%
    20:00 +28°C° 0.4 mm 1 m/s 748 mmHg 88%
    21:00 +27°C° 0.4 mm 1 m/s 749 mmHg 90%
    22:00 +25°C° 0.4 mm 0 m/s 749 mmHg 92%
    23:00 +25°C° 0.1 mm 0 m/s 749 mmHg 93%

    Après-demain, 15 Novembre, Jeudi

    Heure Température Précipitation Vent Pression Humidité
    00:00 +24°C° 0.1 mm 0 m/s 748 mmHg 94%
    01:00 +24°C° 0.1 mm 0 m/s 748 mmHg 95%
    02:00 +24°C° 1.1 mm 0 m/s 748 mmHg 96%
    03:00 +24°C° 1.1 mm 0 m/s 748 mmHg 97%
    04:00 +24°C° 1.1 mm 0 m/s 748 mmHg 98%
    05:00 +24°C° 1.3 mm 0 m/s 749 mmHg 98%
    06:00 +26°C° 1.3 mm 1 m/s 750 mmHg 98%
    07:00 +26°C° 1.3 mm 1 m/s 750 mmHg 98%
    08:00 +26°C° 1.4 mm 1 m/s 751 mmHg 98%
    09:00 +27°C° 1.4 mm 1 m/s 751 mmHg 97%
    10:00 +27°C° 1.4 mm 1 m/s 751 mmHg 97%
    11:00 +27°C° 0.6 mm 1 m/s 750 mmHg 94%
    12:00 +28°C° 0.6 mm 1 m/s 749 mmHg 92%
    13:00 +28°C° 0.6 mm 1 m/s 748 mmHg 89%
    14:00 +29°C° 0 mm 1 m/s 748 mmHg 85%
    15:00 +29°C° 0 mm 1 m/s 748 mmHg 81%
    16:00 +28°C° 0 mm 0 m/s 747 mmHg 77%
    17:00 +27°C° 0 mm 0 m/s 748 mmHg 81%
    18:00 +26°C° 0 mm 0 m/s 748 mmHg 86%
    19:00 +25°C° 0 mm 0 m/s 749 mmHg 90%
    20:00 +25°C° 0 mm 0 m/s 749 mmHg 90%
    21:00 +25°C° 0 mm 0 m/s 750 mmHg 91%
    22:00 +24°C° 0 mm 0 m/s 750 mmHg 91%
    23:00 +24°C° 0 mm 0 m/s 749 mmHg 92%

    16 Novembre, Vendredi

    Heure Température Précipitation Vent Pression Humidité
    00:00 +24°C° 0 mm 0 m/s 749 mmHg 93%
    01:00 +24°C° 0 mm 0 m/s 748 mmHg 94%
    02:00 +24°C° 0 mm 0 m/s 748 mmHg 94%
    03:00 +24°C° 0 mm 0 m/s 748 mmHg 94%
    04:00 +23°C° 0 mm 0 m/s 748 mmHg 95%
    05:00 +24°C° 0 mm 0 m/s 749 mmHg 93%
    06:00 +24°C° 0 mm 0 m/s 750 mmHg 92%
    07:00 +25°C° 0 mm 0 m/s 751 mmHg 90%
    08:00 +26°C° 0 mm 0 m/s 751 mmHg 84%
    09:00 +28°C° 0 mm 0 m/s 751 mmHg 78%
    10:00 +29°C° 0 mm 0 m/s 752 mmHg 71%
    11:00 +31°C° 0.1 mm 0 m/s 751 mmHg 64%
    12:00 +33°C° 0.1 mm 0 m/s 750 mmHg 56%
    13:00 +35°C° 0.1 mm 0 m/s 749 mmHg 49%
    14:00 +34°C° 0.2 mm 0 m/s 748 mmHg 53%
    15:00 +35°C° 0.2 mm 1 m/s 748 mmHg 57%
    16:00 +34°C° 0.2 mm 1 m/s 747 mmHg 61%
    17:00 +32°C° 0 mm 1 m/s 748 mmHg 68%
    18:00 +30°C° 0 mm 1 m/s 748 mmHg 75%
    19:00 +29°C° 0 mm 1 m/s 749 mmHg 82%
    20:00 +28°C° 0 mm 1 m/s 749 mmHg 84%
    21:00 +25°C° 0 mm 0 m/s 749 mmHg 87%
    22:00 +25°C° 0 mm 0 m/s 749 mmHg 89%
    23:00 +25°C° 0 mm 0 m/s 749 mmHg 89%

    17 Novembre, Samedi

    Heure Température Précipitation Vent Pression Humidité
    00:00 +25°C° 0 mm 0 m/s 749 mmHg 90%
    01:00 +24°C° 0 mm 0 m/s 748 mmHg 90%
    02:00 +24°C° 0 mm 0 m/s 748 mmHg 91%
    03:00 +24°C° 0 mm 0 m/s 748 mmHg 92%
    04:00 +24°C° 0 mm 0 m/s 749 mmHg 93%
    05:00 +25°C° 0 mm 0 m/s 749 mmHg 89%
    06:00 +26°C° 0 mm 0 m/s 750 mmHg 84%
    07:00 +29°C° 0 mm 1 m/s 750 mmHg 80%
    08:00 +31°C° 0.5 mm 1 m/s 751 mmHg 75%
    09:00 +33°C° 0.5 mm 1 m/s 751 mmHg 70%
    10:00 +35°C° 0.5 mm 1 m/s 751 mmHg 64%
    11:00 +35°C° 0.9 mm 1 m/s 750 mmHg 62%
    12:00 +35°C° 0.9 mm 1 m/s 749 mmHg 59%
    13:00 +36°C° 0.9 mm 1 m/s 748 mmHg 57%
    14:00 +35°C° 0.4 mm 1 m/s 748 mmHg 61%
    15:00 +34°C° 0.4 mm 1 m/s 747 mmHg 65%
    16:00 +33°C° 0.4 mm 1 m/s 747 mmHg 69%
    17:00 +31°C° 0.4 mm 1 m/s 748 mmHg 76%
    18:00 +29°C° 0.4 mm 1 m/s 748 mmHg 83%
    19:00 +28°C° 0.4 mm 1 m/s 749 mmHg 90%
    20:00 +27°C° 0.1 mm 1 m/s 749 mmHg 92%
    21:00 +27°C° 0.1 mm 1 m/s 749 mmHg 93%
    22:00 +25°C° 0.1 mm 0 m/s 749 mmHg 95%
    23:00 +24°C° 0 mm 0 m/s 749 mmHg 95%

    18 Novembre, Dimanche

    Heure Température Précipitation Vent Pression Humidité
    00:00 +24°C° 0 mm 0 m/s 748 mmHg 95%
    01:00 +24°C° 0 mm 0 m/s 748 mmHg 96%
    02:00 +24°C° 0 mm 0 m/s 748 mmHg 96%
    03:00 +24°C° 0 mm 0 m/s 748 mmHg 96%
    04:00 +24°C° 0 mm 0 m/s 748 mmHg 96%
    05:00 +24°C° 0 mm 0 m/s 749 mmHg 94%
    06:00 +25°C° 0 mm 0 m/s 749 mmHg 92%
    07:00 +26°C° 0 mm 0 m/s 750 mmHg 89%
    08:00 +30°C° 0 mm 1 m/s 750 mmHg 77%
    09:00 +33°C° 0 mm 1 m/s 750 mmHg 65%
    10:00 +35°C° 0 mm 1 m/s 750 mmHg 52%
    11:00 +36°C° 0 mm 1 m/s 749 mmHg 49%
    12:00 +37°C° 0 mm 1 m/s 748 mmHg 46%
    13:00 +37°C° 0 mm 1 m/s 747 mmHg 43%
    14:00 +37°C° 0 mm 1 m/s 747 mmHg 46%
    15:00 +36°C° 0 mm 1 m/s 746 mmHg 49%
    16:00 +35°C° 0 mm 1 m/s 746 mmHg 51%
    17:00 +34°C° 0 mm 1 m/s 747 mmHg 57%
    18:00 +32°C° 0 mm 1 m/s 747 mmHg 63%
    19:00 +28°C° 0 mm 0 m/s 748 mmHg 69%
    20:00 +28°C° 0 mm 0 m/s 748 mmHg 71%
    21:00 +27°C° 0 mm 0 m/s 748 mmHg 72%
    22:00 +27°C° 0 mm 0 m/s 748 mmHg 74%
    23:00 +26°C° 0 mm 0 m/s 748 mmHg 76%
    Voir plus